STARLINK-32749 (62508 NORAD) Tracking and Keplerian Element Data

This shows tracking and keplerian element data for the satellite.

Feedback or suggestion? Click here.




ElementValue
Catalog62508
NameSTARLINK-32749
Epoch Orbit538
Epoch Day34.04611872
Epoch Year2025
RAAN30.0677
Inclination43.0002
Eccentricity0.000287
Argument of Perigee300.2082
Mean Anonmoly59.8494
Mean Motion15.50573165
Decay Rate1.67E-05
L11 62508U 25003X 25034.04611872 .00001670 00000+0 34300-4 0 9991
L22 62508 43.0002 30.0677 0002870 300.2082 59.8494 15.50573165 5380



Live tracking and technical data element details for STARLINK-32749 (NORAD 62508). STARLINK-32749 can be tracked NOW for your location showing map with azimuth and elevation plus other details from your city location.







IsCatalogInMostPopularTable: catalog: 62508, numindb: 11
Update: records affected: 1



GetName: 62508 STARLINK-32749

Hit Count: updated at: Mon, 19 May 2025 02:58:52 GMT